owner,sensor,date,latitude,longitude,vertical_datum,sea_water_practical_salinity,qcFlag 
NERRS,ioos:station:NOAA.NERRS:wkbfrwq:1,2017-07-12T19:30:00Z,30.4162,-87.8228,2.56,0.1,1111122 
NERRS,ioos:station:NOAA.NERRS:wkbfrwq:1,2017-07-20T14:45:00Z,30.4162,-87.8228,2.53,0.1,1111122 
NERRS,ioos:station:NOAA.NERRS:wkbfrwq:1,2017-07-20T15:45:00Z,30.4162,-87.8228,2.51,0.1,1111122 
NERRS,ioos:station:NOAA.NERRS:wkbfrwq:1,2017-07-20T16:45:00Z,30.4162,-87.8228,2.42,0.1,1111122 
NERRS,ioos:station:NOAA.NERRS:wkbfrwq:1,2017-07-20T17:45:00Z,30.4162,-87.8228,2.35,0.1,1111122 
NERRS,ioos:station:NOAA.NERRS:wkbfrwq:1,2017-07-20T18:45:00Z,30.4162,-87.8228,2.27,0.1,1111122 
NERRS,ioos:station:NOAA.NERRS:wkbfrwq:1,2017-07-20T19:45:00Z,30.4162,-87.8228,2.19,0.1,1111122 
NERRS,ioos:station:NOAA.NERRS:wkbfrwq:1,2017-07-20T20:45:00Z,30.4162,-87.8228,2.09,0.1,1111122 
NERRS,ioos:station:NOAA.NERRS:wkbfrwq:1,2017-07-20T21:45:00Z,30.4162,-87.8228,2.02,0.1,1111122 
NERRS,ioos:station:NOAA.NERRS:wkbfrwq:1,2017-07-20T22:45:00Z,30.4162,-87.8228,1.98,0.1,1111122 
NERRS,ioos:station:NOAA.NERRS:wkbfrwq:1,2017-07-20T23:45:00Z,30.4162,-87.8228,1.96,0.1,1111122 
NERRS,ioos:station:NOAA.NERRS:wkbfrwq:1,2017-07-21T00:45:00Z,30.4162,-87.8228,1.94,0.1,1111122 
NERRS,ioos:station:NOAA.NERRS:wkbfrwq:1,2017-07-21T01:45:00Z,30.4162,-87.8228,1.9,0.1,1111122 
NERRS,ioos:station:NOAA.NERRS:wkbfrwq:1,2017-07-21T02:45:00Z,30.4162,-87.8228,1.9,0.1,1111122 
NERRS,ioos:station:NOAA.NERRS:wkbfrwq:1,2017-07-21T03:45:00Z,30.4162,-87.8228,1.98,0.1,1111122 
NERRS,ioos:station:NOAA.NERRS:wkbfrwq:1,2017-07-21T04:45:00Z,30.4162,-87.8228,2.1,0.1,1111122 
NERRS,ioos:station:NOAA.NERRS:wkbfrwq:1,2017-07-21T05:45:00Z,30.4162,-87.8228,2.16,0.1,1111122 
NERRS,ioos:station:NOAA.NERRS:wkbfrwq:1,2017-07-21T06:45:00Z,30.4162,-87.8228,2.23,0.1,1111122 
NERRS,ioos:station:NOAA.NERRS:wkbfrwq:1,2017-07-21T07:45:00Z,30.4162,-87.8228,2.27,0.1,1111122 
NERRS,ioos:station:NOAA.NERRS:wkbfrwq:1,2017-07-21T08:45:00Z,30.4162,-87.8228,2.33,0.1,1111122 
NERRS,ioos:station:NOAA.NERRS:wkbfrwq:1,2017-07-21T09:45:00Z,30.4162,-87.8228,2.39,0.1,1111122 
NERRS,ioos:station:NOAA.NERRS:wkbfrwq:1,2017-07-21T10:45:00Z,30.4162,-87.8228,2.44,0.1,1111122 
NERRS,ioos:station:NOAA.NERRS:wkbfrwq:1,2017-07-21T11:45:00Z,30.4162,-87.8228,2.51,0.2,1111122 
NERRS,ioos:station:NOAA.NERRS:wkbfrwq:1,2017-07-21T12:45:00Z,30.4162,-87.8228,2.58,0.3,1111122 
NERRS,ioos:station:NOAA.NERRS:wkbfrwq:1,2017-07-21T14:45:00Z,30.4162,-87.8228,2.73,0.3,1111122 
NERRS,ioos:station:NOAA.NERRS:wkbfrwq:1,2017-07-21T15:45:00Z,30.4162,-87.8228,2.56,0.3,1111122 
NERRS,ioos:station:NOAA.NERRS:wkbfrwq:1,2017-07-21T16:45:00Z,30.4162,-87.8228,2.5,0.2,1111122 
NERRS,ioos:station:NOAA.NERRS:wkbfrwq:1,2017-07-21T17:45:00Z,30.4162,-87.8228,2.52,0.1,1111122 
NERRS,ioos:station:NOAA.NERRS:wkbfrwq:1,2017-07-21T18:45:00Z,30.4162,-87.8228,2.48,0.3,1111122 
NERRS,ioos:station:NOAA.NERRS:wkbfrwq:1,2017-07-21T19:45:00Z,30.4162,-87.8228,2.37,0.1,1111122 
NERRS,ioos:station:NOAA.NERRS:wkbfrwq:1,2017-07-21T20:45:00Z,30.4162,-87.8228,2.22,0.1,1111122 
NERRS,ioos:station:NOAA.NERRS:wkbfrwq:1,2017-07-21T21:45:00Z,30.4162,-87.8228,2.14,0.1,1111122 
NERRS,ioos:station:NOAA.NERRS:wkbfrwq:1,2017-07-21T22:45:00Z,30.4162,-87.8228,2.11,0.1,1111122 
NERRS,ioos:station:NOAA.NERRS:wkbfrwq:1,2017-07-21T23:45:00Z,30.4162,-87.8228,2.05,0.1,1111122 
NERRS,ioos:station:NOAA.NERRS:wkbfrwq:1,2017-07-22T00:45:00Z,30.4162,-87.8228,2.02,0.1,1111122 
NERRS,ioos:station:NOAA.NERRS:wkbfrwq:1,2017-07-22T01:45:00Z,30.4162,-87.8228,1.98,0.1,1111122 
NERRS,ioos:station:NOAA.NERRS:wkbfrwq:1,2017-07-22T02:45:00Z,30.4162,-87.8228,1.95,0.1,1111122 
NERRS,ioos:station:NOAA.NERRS:wkbfrwq:1,2017-07-22T03:45:00Z,30.4162,-87.8228,1.94,0.1,1111122 
NERRS,ioos:station:NOAA.NERRS:wkbfrwq:1,2017-07-22T04:45:00Z,30.4162,-87.8228,1.99,0.1,1111122 
NERRS,ioos:station:NOAA.NERRS:wkbfrwq:1,2017-07-22T05:45:00Z,30.4162,-87.8228,2.07,0.1,1111122 
NERRS,ioos:station:NOAA.NERRS:wkbfrwq:1,2017-07-22T06:45:00Z,30.4162,-87.8228,2.15,0.1,1111122 
NERRS,ioos:station:NOAA.NERRS:wkbfrwq:1,2017-07-22T07:45:00Z,30.4162,-87.8228,2.2,0.1,1111122 
NERRS,ioos:station:NOAA.NERRS:wkbfrwq:1,2017-07-22T08:45:00Z,30.4162,-87.8228,2.27,0.1,1111122 
NERRS,ioos:station:NOAA.NERRS:wkbfrwq:1,2017-07-22T09:45:00Z,30.4162,-87.8228,2.34,0.1,1111122 
NERRS,ioos:station:NOAA.NERRS:wkbfrwq:1,2017-07-22T10:45:00Z,30.4162,-87.8228,2.45,0.1,1111122 
NERRS,ioos:station:NOAA.NERRS:wkbfrwq:1,2017-07-22T11:45:00Z,30.4162,-87.8228,2.52,0.1,1111122 
NERRS,ioos:station:NOAA.NERRS:wkbfrwq:1,2017-07-22T12:45:00Z,30.4162,-87.8228,2.59,0.2,1111122 
NERRS,ioos:station:NOAA.NERRS:wkbfrwq:1,2017-07-22T13:45:00Z,30.4162,-87.8228,2.6,0.3,1111122 
NERRS,ioos:station:NOAA.NERRS:wkbfrwq:1,2017-07-22T14:45:00Z,30.4162,-87.8228,2.58,0.2,1111122 
NERRS,ioos:station:NOAA.NERRS:wkbfrwq:1,2017-07-22T15:45:00Z,30.4162,-87.8228,2.63,0.3,1111122 
NERRS,ioos:station:NOAA.NERRS:wkbfrwq:1,2017-07-22T16:45:00Z,30.4162,-87.8228,2.63,0.3,1111122 
NERRS,ioos:station:NOAA.NERRS:wkbfrwq:1,2017-07-22T17:45:00Z,30.4162,-87.8228,2.58,0.2,1111122 
NERRS,ioos:station:NOAA.NERRS:wkbfrwq:1,2017-07-22T18:45:00Z,30.4162,-87.8228,2.49,0.1,1111122 
NERRS,ioos:station:NOAA.NERRS:wkbfrwq:1,2017-07-22T19:45:00Z,30.4162,-87.8228,2.4,0.1,1111122 
NERRS,ioos:station:NOAA.NERRS:wkbfrwq:1,2017-07-22T20:45:00Z,30.4162,-87.8228,2.31,0.1,1111122 
NERRS,ioos:station:NOAA.NERRS:wkbfrwq:1,2017-07-22T21:45:00Z,30.4162,-87.8228,2.24,0.1,1111122 
NERRS,ioos:station:NOAA.NERRS:wkbfrwq:1,2017-07-22T22:45:00Z,30.4162,-87.8228,2.17,0.1,1111122 
NERRS,ioos:station:NOAA.NERRS:wkbfrwq:1,2017-07-22T23:45:00Z,30.4162,-87.8228,2.12,0.1,1111122 
NERRS,ioos:station:NOAA.NERRS:wkbfrwq:1,2017-07-23T00:45:00Z,30.4162,-87.8228,2.06,0.1,1111122 
NERRS,ioos:station:NOAA.NERRS:wkbfrwq:1,2017-07-23T01:45:00Z,30.4162,-87.8228,2.02,0.1,1111122 
NERRS,ioos:station:NOAA.NERRS:wkbfrwq:1,2017-07-23T02:45:00Z,30.4162,-87.8228,1.98,0.1,1111122 
NERRS,ioos:station:NOAA.NERRS:wkbfrwq:1,2017-07-23T03:45:00Z,30.4162,-87.8228,1.98,0.1,1111122 
NERRS,ioos:station:NOAA.NERRS:wkbfrwq:1,2017-07-23T04:45:00Z,30.4162,-87.8228,2.01,0.1,1111122 
NERRS,ioos:station:NOAA.NERRS:wkbfrwq:1,2017-07-23T05:45:00Z,30.4162,-87.8228,2.06,0.1,1111122 
NERRS,ioos:station:NOAA.NERRS:wkbfrwq:1,2017-07-23T06:45:00Z,30.4162,-87.8228,2.12,0.1,1111122 
NERRS,ioos:station:NOAA.NERRS:wkbfrwq:1,2017-07-23T07:45:00Z,30.4162,-87.8228,2.2,0.1,1111122 
NERRS,ioos:station:NOAA.NERRS:wkbfrwq:1,2017-07-23T08:45:00Z,30.4162,-87.8228,2.27,0.1,1111122 
NERRS,ioos:station:NOAA.NERRS:wkbfrwq:1,2017-07-23T09:45:00Z,30.4162,-87.8228,2.32,0.1,1111122 
NERRS,ioos:station:NOAA.NERRS:wkbfrwq:1,2017-07-23T10:45:00Z,30.4162,-87.8228,2.36,0.1,1111122 
NERRS,ioos:station:NOAA.NERRS:wkbfrwq:1,2017-07-23T11:45:00Z,30.4162,-87.8228,2.43,0.1,1111122 
NERRS,ioos:station:NOAA.NERRS:wkbfrwq:1,2017-07-23T12:45:00Z,30.4162,-87.8228,2.5,0.1,1111122 
NERRS,ioos:station:NOAA.NERRS:wkbfrwq:1,2017-07-23T13:45:00Z,30.4162,-87.8228,2.56,0.2,1111122 
NERRS,ioos:station:NOAA.NERRS:wkbfrwq:1,2017-07-23T14:45:00Z,30.4162,-87.8228,2.6,0.2,1111122 
NERRS,ioos:station:NOAA.NERRS:wkbfrwq:1,2017-07-23T15:45:00Z,30.4162,-87.8228,2.61,0.2,1111122 
NERRS,ioos:station:NOAA.NERRS:wkbfrwq:1,2017-07-23T16:45:00Z,30.4162,-87.8228,2.59,0.2,1111122 
NERRS,ioos:station:NOAA.NERRS:wkbfrwq:1,2017-07-23T17:45:00Z,30.4162,-87.8228,2.61,0.2,1111122 
NERRS,ioos:station:NOAA.NERRS:wkbfrwq:1,2017-07-23T18:45:00Z,30.4162,-87.8228,2.57,0.2,1111122 
NERRS,ioos:station:NOAA.NERRS:wkbfrwq:1,2017-07-23T19:45:00Z,30.4162,-87.8228,2.49,0.1,1111122 
NERRS,ioos:station:NOAA.NERRS:wkbfrwq:1,2017-07-23T20:45:00Z,30.4162,-87.8228,2.41,0.1,1111122 
NERRS,ioos:station:NOAA.NERRS:wkbfrwq:1,2017-07-23T21:45:00Z,30.4162,-87.8228,2.4,0.1,1111122 
NERRS,ioos:station:NOAA.NERRS:wkbfrwq:1,2017-07-23T22:45:00Z,30.4162,-87.8228,2.35,0.1,1111122 
NERRS,ioos:station:NOAA.NERRS:wkbfrwq:1,2017-07-23T23:45:00Z,30.4162,-87.8228,2.26,0.1,1111122 
NERRS,ioos:station:NOAA.NERRS:wkbfrwq:1,2017-07-24T00:45:00Z,30.4162,-87.8228,2.16,0.1,1111122 
NERRS,ioos:station:NOAA.NERRS:wkbfrwq:1,2017-07-24T01:45:00Z,30.4162,-87.8228,2.1,0.1,1111122 
NERRS,ioos:station:NOAA.NERRS:wkbfrwq:1,2017-07-24T02:45:00Z,30.4162,-87.8228,2.03,0.1,1111122 
NERRS,ioos:station:NOAA.NERRS:wkbfrwq:1,2017-07-24T03:45:00Z,30.4162,-87.8228,2.0,0.1,1111122 
NERRS,ioos:station:NOAA.NERRS:wkbfrwq:1,2017-07-24T04:45:00Z,30.4162,-87.8228,2.05,0.1,1111122 
NERRS,ioos:station:NOAA.NERRS:wkbfrwq:1,2017-07-24T05:45:00Z,30.4162,-87.8228,2.05,0.1,1111122 
NERRS,ioos:station:NOAA.NERRS:wkbfrwq:1,2017-07-24T06:45:00Z,30.4162,-87.8228,2.11,0.1,1111122 
NERRS,ioos:station:NOAA.NERRS:wkbfrwq:1,2017-07-24T07:45:00Z,30.4162,-87.8228,2.11,0.1,1111122 
NERRS,ioos:station:NOAA.NERRS:wkbfrwq:1,2017-07-24T08:45:00Z,30.4162,-87.8228,2.13,0.1,1111122 
NERRS,ioos:station:NOAA.NERRS:wkbfrwq:1,2017-07-24T09:45:00Z,30.4162,-87.8228,2.17,0.1,1111122 
NERRS,ioos:station:NOAA.NERRS:wkbfrwq:1,2017-07-24T12:45:00Z,30.4162,-87.8228,2.45,0.1,1111122 
NERRS,ioos:station:NOAA.NERRS:wkbfrwq:1,2017-07-24T13:45:00Z,30.4162,-87.8228,2.59,0.1,1111122 
NERRS,ioos:station:NOAA.NERRS:wkbfrwq:1,2017-07-24T14:45:00Z,30.4162,-87.8228,2.62,0.2,1111122 
NERRS,ioos:station:NOAA.NERRS:wkbfrwq:1,2017-07-24T15:45:00Z,30.4162,-87.8228,2.6,0.2,1111122 
NERRS,ioos:station:NOAA.NERRS:wkbfrwq:1,2017-07-24T16:45:00Z,30.4162,-87.8228,2.58,0.1,1111122 
NERRS,ioos:station:NOAA.NERRS:wkbfrwq:1,2017-07-24T17:45:00Z,30.4162,-87.8228,2.52,0.1,1111122 
NERRS,ioos:station:NOAA.NERRS:wkbfrwq:1,2017-07-24T18:45:00Z,30.4162,-87.8228,2.45,0.1,1111122 
NERRS,ioos:station:NOAA.NERRS:wkbfrwq:1,2017-07-24T19:45:00Z,30.4162,-87.8228,2.4,0.1,1111122 
NERRS,ioos:station:NOAA.NERRS:wkbfrwq:1,2017-07-24T20:45:00Z,30.4162,-87.8228,2.33,0.1,1111122 
NERRS,ioos:station:NOAA.NERRS:wkbfrwq:1,2017-07-24T21:45:00Z,30.4162,-87.8228,2.29,0.1,1111122 
NERRS,ioos:station:NOAA.NERRS:wkbfrwq:1,2017-07-24T22:45:00Z,30.4162,-87.8228,2.23,0.1,1111122 
NERRS,ioos:station:NOAA.NERRS:wkbfrwq:1,2017-07-24T23:45:00Z,30.4162,-87.8228,2.13,0.1,1111122 
NERRS,ioos:station:NOAA.NERRS:wkbfrwq:1,2017-07-25T00:45:00Z,30.4162,-87.8228,2.07,0.1,1111122 
NERRS,ioos:station:NOAA.NERRS:wkbfrwq:1,2017-07-25T01:45:00Z,30.4162,-87.8228,2.02,0.1,1111122 
NERRS,ioos:station:NOAA.NERRS:wkbfrwq:1,2017-07-25T02:45:00Z,30.4162,-87.8228,2.01,0.1,1111122 
NERRS,ioos:station:NOAA.NERRS:wkbfrwq:1,2017-07-25T03:45:00Z,30.4162,-87.8228,2.01,0.1,1111122 
NERRS,ioos:station:NOAA.NERRS:wkbfrwq:1,2017-07-25T04:45:00Z,30.4162,-87.8228,2.02,0.1,1111122 
NERRS,ioos:station:NOAA.NERRS:wkbfrwq:1,2017-07-25T05:45:00Z,30.4162,-87.8228,2.02,0.1,1111122 
NERRS,ioos:station:NOAA.NERRS:wkbfrwq:1,2017-07-25T06:45:00Z,30.4162,-87.8228,2.02,0.1,1111122 
NERRS,ioos:station:NOAA.NERRS:wkbfrwq:1,2017-07-25T07:45:00Z,30.4162,-87.8228,2.04,0.1,1111122 
NERRS,ioos:station:NOAA.NERRS:wkbfrwq:1,2017-07-25T08:45:00Z,30.4162,-87.8228,2.11,0.1,1111122 
NERRS,ioos:station:NOAA.NERRS:wkbfrwq:1,2017-07-25T09:45:00Z,30.4162,-87.8228,2.2,0.1,1111122 
NERRS,ioos:station:NOAA.NERRS:wkbfrwq:1,2017-07-25T10:45:00Z,30.4162,-87.8228,2.26,0.1,1111122 
NERRS,ioos:station:NOAA.NERRS:wkbfrwq:1,2017-07-25T11:45:00Z,30.4162,-87.8228,2.31,0.1,1111122 
NERRS,ioos:station:NOAA.NERRS:wkbfrwq:1,2017-07-25T12:45:00Z,30.4162,-87.8228,2.34,0.1,1111122 
NERRS,ioos:station:NOAA.NERRS:wkbfrwq:1,2017-07-25T13:45:00Z,30.4162,-87.8228,2.39,0.1,1111122 
NERRS,ioos:station:NOAA.NERRS:wkbfrwq:1,2017-07-25T14:45:00Z,30.4162,-87.8228,2.47,0.1,1111122 
NERRS,ioos:station:NOAA.NERRS:wkbfrwq:1,2017-07-25T15:45:00Z,30.4162,-87.8228,2.53,0.1,1111122 
NERRS,ioos:station:NOAA.NERRS:wkbfrwq:1,2017-07-25T16:45:00Z,30.4162,-87.8228,2.65,0.1,1111122 
NERRS,ioos:station:NOAA.NERRS:wkbfrwq:1,2017-07-25T17:45:00Z,30.4162,-87.8228,2.64,0.1,1111122 
NERRS,ioos:station:NOAA.NERRS:wkbfrwq:1,2017-07-25T18:45:00Z,30.4162,-87.8228,2.51,0.1,1111122 
NERRS,ioos:station:NOAA.NERRS:wkbfrwq:1,2017-07-25T19:45:00Z,30.4162,-87.8228,2.45,0.1,1111122 
NERRS,ioos:station:NOAA.NERRS:wkbfrwq:1,2017-07-25T20:45:00Z,30.4162,-87.8228,2.42,0.1,1111122 
NERRS,ioos:station:NOAA.NERRS:wkbfrwq:1,2017-07-25T21:45:00Z,30.4162,-87.8228,2.4,0.1,1111122 
NERRS,ioos:station:NOAA.NERRS:wkbfrwq:1,2017-07-25T22:45:00Z,30.4162,-87.8228,2.31,0.1,1111122 
NERRS,ioos:station:NOAA.NERRS:wkbfrwq:1,2017-07-25T23:45:00Z,30.4162,-87.8228,2.19,0.1,1111122 
NERRS,ioos:station:NOAA.NERRS:wkbfrwq:1,2017-07-26T00:45:00Z,30.4162,-87.8228,2.12,0.1,1111122 
NERRS,ioos:station:NOAA.NERRS:wkbfrwq:1,2017-07-26T01:45:00Z,30.4162,-87.8228,2.09,0.1,1111122 
NERRS,ioos:station:NOAA.NERRS:wkbfrwq:1,2017-07-26T02:45:00Z,30.4162,-87.8228,2.05,0.1,1111122 
NERRS,ioos:station:NOAA.NERRS:wkbfrwq:1,2017-07-26T03:45:00Z,30.4162,-87.8228,2.0,0.1,1111122 
NERRS,ioos:station:NOAA.NERRS:wkbfrwq:1,2017-07-26T04:45:00Z,30.4162,-87.8228,1.97,0.1,1111122 
NERRS,ioos:station:NOAA.NERRS:wkbfrwq:1,2017-07-26T05:45:00Z,30.4162,-87.8228,2.0,0.1,1111122 
NERRS,ioos:station:NOAA.NERRS:wkbfrwq:1,2017-07-26T06:45:00Z,30.4162,-87.8228,2.02,0.1,1111122 
NERRS,ioos:station:NOAA.NERRS:wkbfrwq:1,2017-07-26T07:45:00Z,30.4162,-87.8228,2.03,0.1,1111122 
NERRS,ioos:station:NOAA.NERRS:wkbfrwq:1,2017-07-26T08:45:00Z,30.4162,-87.8228,2.05,0.1,1111122 
NERRS,ioos:station:NOAA.NERRS:wkbfrwq:1,2017-07-26T09:45:00Z,30.4162,-87.8228,2.08,0.1,1111122 
NERRS,ioos:station:NOAA.NERRS:wkbfrwq:1,2017-07-26T10:45:00Z,30.4162,-87.8228,2.15,0.1,1111122 
NERRS,ioos:station:NOAA.NERRS:wkbfrwq:1,2017-07-26T11:45:00Z,30.4162,-87.8228,2.22,0.1,1111122 
NERRS,ioos:station:NOAA.NERRS:wkbfrwq:1,2017-07-26T12:45:00Z,30.4162,-87.8228,2.24,0.1,1111122 
NERRS,ioos:station:NOAA.NERRS:wkbfrwq:1,2017-07-26T13:45:00Z,30.4162,-87.8228,2.25,0.1,1111122 
NERRS,ioos:station:NOAA.NERRS:wkbfrwq:1,2017-07-26T19:45:00Z,30.4162,-87.8228,2.4,0.1,1111122 
NERRS,ioos:station:NOAA.NERRS:wkbfrwq:1,2017-07-26T20:45:00Z,30.4162,-87.8228,2.38,0.1,1111122 
NERRS,ioos:station:NOAA.NERRS:wkbfrwq:1,2017-07-26T21:45:00Z,30.4162,-87.8228,2.33,0.1,1111122 
NERRS,ioos:station:NOAA.NERRS:wkbfrwq:1,2017-07-26T22:45:00Z,30.4162,-87.8228,2.29,0.1,1111122 
NERRS,ioos:station:NOAA.NERRS:wkbfrwq:1,2017-07-26T23:45:00Z,30.4162,-87.8228,2.22,0.1,1111122 
NERRS,ioos:station:NOAA.NERRS:wkbfrwq:1,2017-07-27T00:45:00Z,30.4162,-87.8228,2.16,0.1,1111122 
NERRS,ioos:station:NOAA.NERRS:wkbfrwq:1,2017-07-27T01:45:00Z,30.4162,-87.8228,2.11,0.1,1111122 
NERRS,ioos:station:NOAA.NERRS:wkbfrwq:1,2017-07-27T02:45:00Z,30.4162,-87.8228,2.1,0.1,1111122 
NERRS,ioos:station:NOAA.NERRS:wkbfrwq:1,2017-07-27T03:45:00Z,30.4162,-87.8228,2.02,0.1,1111122 
NERRS,ioos:station:NOAA.NERRS:wkbfrwq:1,2017-07-27T04:45:00Z,30.4162,-87.8228,2.03,0.1,1111122 
NERRS,ioos:station:NOAA.NERRS:wkbfrwq:1,2017-07-27T05:45:00Z,30.4162,-87.8228,2.04,0.1,1111122 
NERRS,ioos:station:NOAA.NERRS:wkbfrwq:1,2017-07-27T06:45:00Z,30.4162,-87.8228,2.09,0.1,1111122 
NERRS,ioos:station:NOAA.NERRS:wkbfrwq:1,2017-07-27T07:45:00Z,30.4162,-87.8228,2.09,0.1,1111122 
NERRS,ioos:station:NOAA.NERRS:wkbfrwq:1,2017-07-27T08:45:00Z,30.4162,-87.8228,2.15,0.1,1111122 
NERRS,ioos:station:NOAA.NERRS:wkbfrwq:1,2017-07-27T09:45:00Z,30.4162,-87.8228,2.18,0.1,1111122 
NERRS,ioos:station:NOAA.NERRS:wkbfrwq:1,2017-07-27T10:45:00Z,30.4162,-87.8228,2.2,0.1,1111122 
NERRS,ioos:station:NOAA.NERRS:wkbfrwq:1,2017-07-27T11:45:00Z,30.4162,-87.8228,2.26,0.1,1111122 
NERRS,ioos:station:NOAA.NERRS:wkbfrwq:1,2017-07-27T12:45:00Z,30.4162,-87.8228,2.27,0.1,1111122 
NERRS,ioos:station:NOAA.NERRS:wkbfrwq:1,2017-07-27T13:45:00Z,30.4162,-87.8228,2.25,0.1,1111122 
NERRS,ioos:station:NOAA.NERRS:wkbfrwq:1,2017-07-27T14:45:00Z,30.4162,-87.8228,2.24,0.1,1111122 
NERRS,ioos:station:NOAA.NERRS:wkbfrwq:1,2017-07-27T15:45:00Z,30.4162,-87.8228,2.27,0.1,1111122 
NERRS,ioos:station:NOAA.NERRS:wkbfrwq:1,2017-07-27T16:45:00Z,30.4162,-87.8228,2.33,0.1,1111122 
NERRS,ioos:station:NOAA.NERRS:wkbfrwq:1,2017-07-27T17:45:00Z,30.4162,-87.8228,2.34,0.1,1111122 
NERRS,ioos:station:NOAA.NERRS:wkbfrwq:1,2017-07-27T18:45:00Z,30.4162,-87.8228,2.31,0.1,1111122 
NERRS,ioos:station:NOAA.NERRS:wkbfrwq:1,2017-07-27T19:45:00Z,30.4162,-87.8228,2.29,0.1,1111122 
NERRS,ioos:station:NOAA.NERRS:wkbfrwq:1,2017-07-27T20:45:00Z,30.4162,-87.8228,2.29,0.1,1111122 
NERRS,ioos:station:NOAA.NERRS:wkbfrwq:1,2017-07-27T21:45:00Z,30.4162,-87.8228,2.3,0.1,1111122 
NERRS,ioos:station:NOAA.NERRS:wkbfrwq:1,2017-07-27T22:45:00Z,30.4162,-87.8228,2.29,0.1,1111122 
NERRS,ioos:station:NOAA.NERRS:wkbfrwq:1,2017-07-27T23:45:00Z,30.4162,-87.8228,2.21,0.1,1111122 
NERRS,ioos:station:NOAA.NERRS:wkbfrwq:1,2017-07-28T00:45:00Z,30.4162,-87.8228,2.13,0.1,1111122 
NERRS,ioos:station:NOAA.NERRS:wkbfrwq:1,2017-07-28T01:45:00Z,30.4162,-87.8228,2.06,0.1,1111122 
NERRS,ioos:station:NOAA.NERRS:wkbfrwq:1,2017-07-28T02:45:00Z,30.4162,-87.8228,2.03,0.1,1111122 
NERRS,ioos:station:NOAA.NERRS:wkbfrwq:1,2017-07-28T03:45:00Z,30.4162,-87.8228,2.07,0.1,1111122 
NERRS,ioos:station:NOAA.NERRS:wkbfrwq:1,2017-07-28T04:45:00Z,30.4162,-87.8228,2.08,0.1,1111122 
NERRS,ioos:station:NOAA.NERRS:wkbfrwq:1,2017-07-28T05:45:00Z,30.4162,-87.8228,2.07,0.1,1111122 
NERRS,ioos:station:NOAA.NERRS:wkbfrwq:1,2017-07-28T06:45:00Z,30.4162,-87.8228,2.1,0.1,1111122 
NERRS,ioos:station:NOAA.NERRS:wkbfrwq:1,2017-07-28T07:45:00Z,30.4162,-87.8228,2.15,0.1,1111122 
NERRS,ioos:station:NOAA.NERRS:wkbfrwq:1,2017-07-28T08:45:00Z,30.4162,-87.8228,2.2,0.1,1111122 
NERRS,ioos:station:NOAA.NERRS:wkbfrwq:1,2017-07-28T09:45:00Z,30.4162,-87.8228,2.22,0.1,1111122 
NERRS,ioos:station:NOAA.NERRS:wkbfrwq:1,2017-07-28T10:45:00Z,30.4162,-87.8228,2.22,0.1,1111122 
NERRS,ioos:station:NOAA.NERRS:wkbfrwq:1,2017-07-28T11:45:00Z,30.4162,-87.8228,2.26,0.1,1111122 
NERRS,ioos:station:NOAA.NERRS:wkbfrwq:1,2017-07-28T12:45:00Z,30.4162,-87.8228,2.27,0.1,1111122 
NERRS,ioos:station:NOAA.NERRS:wkbfrwq:1,2017-07-28T13:45:00Z,30.4162,-87.8228,2.28,0.1,1111122 
NERRS,ioos:station:NOAA.NERRS:wkbfrwq:1,2017-07-28T14:45:00Z,30.4162,-87.8228,2.27,0.1,1111122 
NERRS,ioos:station:NOAA.NERRS:wkbfrwq:1,2017-07-28T19:45:00Z,30.4162,-87.8228,2.33,0.1,1111122 
NERRS,ioos:station:NOAA.NERRS:wkbfrwq:1,2017-07-28T20:45:00Z,30.4162,-87.8228,2.31,0.1,1111122 
NERRS,ioos:station:NOAA.NERRS:wkbfrwq:1,2017-07-28T22:45:00Z,30.4162,-87.8228,2.35,0.1,1111122 
NERRS,ioos:station:NOAA.NERRS:wkbfrwq:1,2017-07-28T23:45:00Z,30.4162,-87.8228,2.35,0.1,1111122 
NERRS,ioos:station:NOAA.NERRS:wkbfrwq:1,2017-07-29T00:45:00Z,30.4162,-87.8228,2.32,0.1,1111122 
NERRS,ioos:station:NOAA.NERRS:wkbfrwq:1,2017-07-29T02:45:00Z,30.4162,-87.8228,2.32,0.1,1111122 
NERRS,ioos:station:NOAA.NERRS:wkbfrwq:1,2017-07-29T04:45:00Z,30.4162,-87.8228,2.32,0.1,1111122 
NERRS,ioos:station:NOAA.NERRS:wkbfrwq:1,2017-07-29T05:45:00Z,30.4162,-87.8228,2.35,0.1,1111122 
NERRS,ioos:station:NOAA.NERRS:wkbfrwq:1,2017-07-29T06:45:00Z,30.4162,-87.8228,2.38,0.1,1111122 
NERRS,ioos:station:NOAA.NERRS:wkbfrwq:1,2017-07-29T07:45:00Z,30.4162,-87.8228,2.41,0.1,1111122 
NERRS,ioos:station:NOAA.NERRS:wkbfrwq:1,2017-07-29T08:45:00Z,30.4162,-87.8228,2.42,0.1,1111122 
NERRS,ioos:station:NOAA.NERRS:wkbfrwq:1,2017-07-29T09:45:00Z,30.4162,-87.8228,2.44,0.2,1111122 
NERRS,ioos:station:NOAA.NERRS:wkbfrwq:1,2017-07-29T10:45:00Z,30.4162,-87.8228,2.43,0.1,1111122 
NERRS,ioos:station:NOAA.NERRS:wkbfrwq:1,2017-07-29T11:45:00Z,30.4162,-87.8228,2.42,0.1,1111122 
NERRS,ioos:station:NOAA.NERRS:wkbfrwq:1,2017-07-29T12:45:00Z,30.4162,-87.8228,2.39,0.1,1111122 
NERRS,ioos:station:NOAA.NERRS:wkbfrwq:1,2017-07-29T13:45:00Z,30.4162,-87.8228,2.35,0.1,1111122 
NERRS,ioos:station:NOAA.NERRS:wkbfrwq:1,2017-07-29T14:45:00Z,30.4162,-87.8228,2.32,0.2,1111122 
NERRS,ioos:station:NOAA.NERRS:wkbfrwq:1,2017-07-29T15:45:00Z,30.4162,-87.8228,2.28,0.1,1111122 
NERRS,ioos:station:NOAA.NERRS:wkbfrwq:1,2017-07-29T16:45:00Z,30.4162,-87.8228,2.26,0.1,1111122 
NERRS,ioos:station:NOAA.NERRS:wkbfrwq:1,2017-07-29T17:45:00Z,30.4162,-87.8228,2.27,0.1,1111122 
NERRS,ioos:station:NOAA.NERRS:wkbfrwq:1,2017-07-29T18:45:00Z,30.4162,-87.8228,2.22,0.1,1111122 
NERRS,ioos:station:NOAA.NERRS:wkbfrwq:1,2017-07-29T19:45:00Z,30.4162,-87.8228,2.22,0.1,1111122 
NERRS,ioos:station:NOAA.NERRS:wkbfrwq:1,2017-07-29T20:45:00Z,30.4162,-87.8228,2.23,0.1,1111122 
NERRS,ioos:station:NOAA.NERRS:wkbfrwq:1,2017-07-29T21:45:00Z,30.4162,-87.8228,2.17,0.1,1111122 
NERRS,ioos:station:NOAA.NERRS:wkbfrwq:1,2017-07-29T22:45:00Z,30.4162,-87.8228,2.14,0.1,1111122 
NERRS,ioos:station:NOAA.NERRS:wkbfrwq:1,2017-07-29T23:45:00Z,30.4162,-87.8228,2.17,0.1,1111122 
NERRS,ioos:station:NOAA.NERRS:wkbfrwq:1,2017-07-30T00:45:00Z,30.4162,-87.8228,2.2,0.1,1111122 
NERRS,ioos:station:NOAA.NERRS:wkbfrwq:1,2017-07-30T01:45:00Z,30.4162,-87.8228,2.17,0.1,1111122 
NERRS,ioos:station:NOAA.NERRS:wkbfrwq:1,2017-07-30T02:45:00Z,30.4162,-87.8228,2.12,0.1,1111122 
NERRS,ioos:station:NOAA.NERRS:wkbfrwq:1,2017-07-30T03:45:00Z,30.4162,-87.8228,2.15,0.1,1111122 
NERRS,ioos:station:NOAA.NERRS:wkbfrwq:1,2017-07-30T04:45:00Z,30.4162,-87.8228,2.2,0.1,1111122 
NERRS,ioos:station:NOAA.NERRS:wkbfrwq:1,2017-07-30T05:45:00Z,30.4162,-87.8228,2.22,0.1,1111122 
NERRS,ioos:station:NOAA.NERRS:wkbfrwq:1,2017-07-30T06:45:00Z,30.4162,-87.8228,2.22,0.1,1111122 
NERRS,ioos:station:NOAA.NERRS:wkbfrwq:1,2017-07-30T07:45:00Z,30.4162,-87.8228,2.27,0.1,1111122 
NERRS,ioos:station:NOAA.NERRS:wkbfrwq:1,2017-07-30T08:45:00Z,30.4162,-87.8228,2.32,0.2,1111122 
NERRS,ioos:station:NOAA.NERRS:wkbfrwq:1,2017-07-30T09:45:00Z,30.4162,-87.8228,2.31,0.1,1111122 
NERRS,ioos:station:NOAA.NERRS:wkbfrwq:1,2017-07-30T10:45:00Z,30.4162,-87.8228,2.27,0.1,1111122 
NERRS,ioos:station:NOAA.NERRS:wkbfrwq:1,2017-07-30T11:45:00Z,30.4162,-87.8228,2.25,0.1,1111122 
NERRS,ioos:station:NOAA.NERRS:wkbfrwq:1,2017-07-30T12:45:00Z,30.4162,-87.8228,2.26,0.1,1111122 
NERRS,ioos:station:NOAA.NERRS:wkbfrwq:1,2017-07-30T13:45:00Z,30.4162,-87.8228,2.25,0.1,1111122 
NERRS,ioos:station:NOAA.NERRS:wkbfrwq:1,2017-07-30T14:45:00Z,30.4162,-87.8228,2.24,0.1,1111122 
NERRS,ioos:station:NOAA.NERRS:wkbfrwq:1,2017-07-30T15:45:00Z,30.4162,-87.8228,2.22,0.1,1111122 
NERRS,ioos:station:NOAA.NERRS:wkbfrwq:1,2017-07-30T16:45:00Z,30.4162,-87.8228,2.2,0.1,1111122 
NERRS,ioos:station:NOAA.NERRS:wkbfrwq:1,2017-07-30T17:45:00Z,30.4162,-87.8228,2.21,0.1,1111122 
NERRS,ioos:station:NOAA.NERRS:wkbfrwq:1,2017-07-30T18:45:00Z,30.4162,-87.8228,2.23,0.1,1111122 
NERRS,ioos:station:NOAA.NERRS:wkbfrwq:1,2017-07-30T19:45:00Z,30.4162,-87.8228,2.22,0.1,1111122 
NERRS,ioos:station:NOAA.NERRS:wkbfrwq:1,2017-07-30T20:45:00Z,30.4162,-87.8228,2.19,0.1,1111122 
NERRS,ioos:station:NOAA.NERRS:wkbfrwq:1,2017-07-30T21:45:00Z,30.4162,-87.8228,2.15,0.1,1111122 
NERRS,ioos:station:NOAA.NERRS:wkbfrwq:1,2017-07-30T22:45:00Z,30.4162,-87.8228,2.13,0.1,1111122 
NERRS,ioos:station:NOAA.NERRS:wkbfrwq:1,2017-07-30T23:45:00Z,30.4162,-87.8228,2.12,0.1,1111122 
NERRS,ioos:station:NOAA.NERRS:wkbfrwq:1,2017-07-31T00:45:00Z,30.4162,-87.8228,2.14,0.1,1111122 
NERRS,ioos:station:NOAA.NERRS:wkbfrwq:1,2017-07-31T01:45:00Z,30.4162,-87.8228,2.17,0.1,1111122 
NERRS,ioos:station:NOAA.NERRS:wkbfrwq:1,2017-07-31T02:45:00Z,30.4162,-87.8228,2.18,0.1,1111122 
NERRS,ioos:station:NOAA.NERRS:wkbfrwq:1,2017-07-31T03:45:00Z,30.4162,-87.8228,2.16,0.1,1111122 
NERRS,ioos:station:NOAA.NERRS:wkbfrwq:1,2017-07-31T04:45:00Z,30.4162,-87.8228,2.18,0.1,1111122 
NERRS,ioos:station:NOAA.NERRS:wkbfrwq:1,2017-07-31T05:45:00Z,30.4162,-87.8228,2.21,0.1,1111122 
NERRS,ioos:station:NOAA.NERRS:wkbfrwq:1,2017-07-31T06:45:00Z,30.4162,-87.8228,2.26,0.1,1111122 
NERRS,ioos:station:NOAA.NERRS:wkbfrwq:1,2017-07-31T07:45:00Z,30.4162,-87.8228,2.36,0.2,1111122 
NERRS,ioos:station:NOAA.NERRS:wkbfrwq:1,2017-07-31T08:45:00Z,30.4162,-87.8228,2.4,0.5,1111122 
NERRS,ioos:station:NOAA.NERRS:wkbfrwq:1,2017-07-31T09:45:00Z,30.4162,-87.8228,2.39,0.4,1111122 
NERRS,ioos:station:NOAA.NERRS:wkbfrwq:1,2017-07-31T10:45:00Z,30.4162,-87.8228,2.41,0.2,1111122 
NERRS,ioos:station:NOAA.NERRS:wkbfrwq:1,2017-07-31T11:45:00Z,30.4162,-87.8228,2.43,0.3,1111122 
NERRS,ioos:station:NOAA.NERRS:wkbfrwq:1,2017-07-31T12:45:00Z,30.4162,-87.8228,2.41,0.2,1111122 